This is the latest recevied weather packets stored in our database for station/object DL9GJ-4. If no packets are shown the sender has not sent any weather packets the latest 10 day(s).
| Time | Temp. | Humidity | Pressure | Rain* | Wind** | Luminosity | Snow |
|---|---|---|---|---|---|---|---|
| 1777072879 | 4.44° C | 26% | 1018 hPa | 0 mm | - | - | - |
| 1777072519 | 4.44° C | 26% | 1018 hPa | 0 mm | - | - | - |
| 1777071798 | 4.44° C | 28% | 1018 hPa | 0 mm | - | - | - |
| 1777071436 | 4.44° C | 26% | 1018 hPa | 0 mm | - | - | - |
| 1777070714 | 4.44° C | 26% | 1018 hPa | 0 mm | - | - | - |
| 1777070354 | 4.44° C | 26% | 1019 hPa | 0 mm | - | - | - |
| 1777069994 | 4.44° C | 26% | 1019 hPa | 0 mm | - | - | - |
| 1777069634 | 4.44° C | 26% | 1019 hPa | 0 mm | - | - | - |
| 1777069273 | 3.89° C | 26% | 1019 hPa | 0 mm | - | - | - |
| 1777068912 | 4.44° C | 23% | 1019 hPa | 0 mm | - | - | - |
| 1777068190 | 5° C | 26% | 1019 hPa | 0 mm | - | - | - |
| 1777067826 | 4.44° C | 26% | 1019 hPa | 0 mm | - | - | - |
| 1777067464 | 4.44° C | 23% | 1019 hPa | 0 mm | - | - | - |
| 1777067103 | 4.44° C | 23% | 1019 hPa | 0 mm | - | - | - |
| 1777066380 | 5° C | 21% | 1019 hPa | 0 mm | - | - | - |
| 1777066016 | 5.56° C | 20% | 1019 hPa | 0 mm | - | - | - |
| 1777065654 | 5.56° C | 20% | 1019 hPa | 0 mm | - | - | - |
| 1777065295 | 5.56° C | 20% | 1019 hPa | 0 mm | - | - | - |
| 1777063855 | 6.11° C | 20% | 1019 hPa | 0 mm | - | - | - |
| 1777063497 | 6.67° C | 20% | 1019 hPa | 0 mm | - | - | - |
| 1777062771 | 6.11° C | 20% | 1019 hPa | 0 mm | - | - | - |
| 1777059890 | 8.33° C | 17% | 1019 hPa | 0 mm | - | - | - |
| 1777059167 | 8.89° C | 16% | 1019 hPa | 0 mm | - | - | - |
| 1777058087 | 10° C | 16% | 1018 hPa | 0 mm | - | - | - |
| 1777057008 | 11.11° C | 16% | 1018 hPa | 0 mm | - | - | - |
* Rain latest hour (hover to see other rain measurements)
** Current wind speed in m/s (hover to see current wind gust speed)